Regional Weather Roundup
Issued by NWS Green Bay, WI

Home | Current Version | Previous Version | Graphics & Text | Print | Product List | Glossary Off
Versions: 1 2 3 4 5 6 7 8 9 10 11 12 13 14 15 16 17 18 19 20 21 22 23 24 25 26 27 28 29 30 31 32 33 34 35 36 37 38 39 40 41 42 43 44 45 46 47 48 49 50

000
ASUS43 KGRB 160800
RWRGRB

NORTH-CENTRAL AND NORTHEAST WISCONSIN REGIONAL WEATHER ROUNDUP
NATIONAL WEATHER SERVICE GREEN BAY WI
200 AM CST SAT DEC 16 2017

WIZ005-009-010>012-018-019-160900-
NORTH CENTRAL WISCONSIN

CITY           SKY/WX    TMP DP  RH WIND       PRES   REMARKS
IRONWOOD       CLOUDY    11   7  84 SE5       29.80R WCI   3
MANITOWISH WTR NOT AVBL
ARBOR VITAE    NOT AVBL
EAGLE RIVER    CLOUDY    10   4  77 SE3       29.76R
LAND O LAKES   CLOUDY     9   6  86 CALM      29.78R
RHINELANDER    CLOUDY    10   6  84 E8        29.76R WCI  -2
PHILLIPS       LGT SNOW  13  10  87 E5        29.75R WCI   5
ANTIGO         NOT AVBL
TOMAHAWK       NOT AVBL
MERRILL        LGT SNOW  14  10  87 E3        29.78R
$$

WIZ013-073-160900-
NORTHEAST WISCONSIN

CITY           SKY/WX    TMP DP  RH WIND       PRES   REMARKS
IRON MOUNTAIN  CLOUDY     9   4  80 CALM      29.81R
MARINETTE      CLOUDY    12   6  77 N3        29.87S
$$

WIZ017-030-035>037-045-160900-
CENTRAL WISCONSIN

CITY           SKY/WX    TMP DP  RH WIND       PRES   REMARKS
MEDFORD        NOT AVBL
WAUSAU         LGT SNOW  15  12  88 E7        29.76R FOG     WCI   5
MOSINEE        NOT AVBL
MARSHFIELD     LGT SNOW  19  17  92 E8        29.73R VSB 1   WCI   9
WISC RAPIDS    LGT SNOW  21  17  84 E6        29.78R FOG
STEVENS POINT  NOT AVBL
WAUPACA        LGT SNOW  20  16  85 CALM      29.81S
SHAWANO        LGT SNOW  16  12  84 CALM      29.84R
CLINTONVILLE   NOT AVBL
WAUTOMA        LGT SNOW  20  17  88 E7        29.80R FOG
$$

WIZ038-039-048-051-160900-
FOX VALLEY

CITY           SKY/WX    TMP DP  RH WIND       PRES   REMARKS
NWS GREEN BAY  LGT SNOW  17  12  80 NE6       29.84S WCI   9
APPLETON       NOT AVBL
OSHKOSH        LGT SNOW  20  18  92 NE7       29.80S FOG
FOND DU LAC    LGT SNOW  24  20  84 NE6       29.80S FOG
$$

WIZ022-050-052-160900-
EAST CENTRAL WISCONSIN

CITY           SKY/WX    TMP DP  RH WIND       PRES   REMARKS
EPHRAIM        CLOUDY    17   7  63 CALM      29.84R
WASHINGTON ISL NOT AVBL
STURGEON BAY   CLOUDY    18  10  71 N6        29.85S WCI  10
MANITOWOC      LGT SNOW  16  14  92 N3        29.85S FOG
SHEBOYGAN      LGT SNOW  20  18  92 NE5       29.82S FOG
$$

LMZ563-521-522-541>543-160900-
LAKESHORE

STATION/POSITION TIME  TEMP    WIND        PRES    VSBY  WAVE
                       AIR SEA DIR/SP/G                  HT/PER
                 (UTC) (F)     (DEG/KT/KT) (MB)    (MI)  (FT/S)
SHEBOYGAN LKSHOR 0700   24      20/  7/  8 1011.0F
KEWAUNEE LKSHORE 0730   16     320/  2/  3 1010.1S
NORTHPORT PIER   0740   20     330/  2/  8 1010.8S
MENOMINEE LKSHOR 0724   16     300/  4/  7 1010.9
$$




USA.gov is the U.S. government's official web portal to all federal, state and local government web resources and services.